Theta_e
329 328 329 330 332 331 331 331 331 331 332 331 330 331 331 331 329 328 329 329 329 330 331 330 329 329 328 328 328 327 328 328 328 325 325 326 322 322 323 321 320 320 322 319 322 318 316 313 316 322 323 323 324 324 324 325 326 326 326 324 322 320 319
329 328 329 330 329 330 329 330 330 330 331 331 331 330 331 331 331 329 328 328 328 329 331 330 330 329 328 327 327 326 326 327 328 326 327 325 324 322 320 317 319 320 320 320 320 318 316 315 315 317 318 321 323 323 323 324 325 326 327 325 322 320 320
328 327 328 327 328 328 328 328 329 329 329 330 330 330 329 330 331 330 329 328 328 329 331 330 329 328 328 327 328 327 327 327 327 326 326 327 326 323 323 320 318 318 319 319 318 317 318 318 315 316 318 318 317 321 322 323 325 325 326 324 322 319 318
327 327 327 327 327 327 327 327 328 327 327 328 328 329 329 330 330 330 329 329 329 330 331 329 329 329 328 328 328 327 326 326 326 325 325 326 326 323 322 322 321 320 319 318 318 317 316 314 316 317 318 320 319 318 321 323 324 325 325 322 320 319 318
328 328 328 327 328 327 327 327 326 325 325 327 328 328 328 329 330 330 330 329 329 329 330 330 330 330 329 328 327 326 326 326 326 326 325 324 325 324 323 322 322 322 321 320 320 320 318 318 317 316 317 319 319 318 318 320 324 324 323 320 320 319 317
329 329 329 328 329 329 328 326 325 324 324 325 326 327 329 329 329 328 328 328 327 328 329 329 329 330 329 328 327 326 327 326 326 326 324 324 325 324 323 322 323 322 322 321 321 320 318 319 318 316 318 320 316 316 315 320 319 321 322 319 318 317 316
327 328 327 328 329 328 326 325 325 325 323 324 325 326 329 329 329 329 328 327 327 327 328 329 329 329 329 328 327 326 326 327 327 326 325 325 325 326 325 322 322 322 322 321 321 320 319 319 318 318 317 317 317 315 310 317 313 318 315 318 317 316 315
325 326 326 327 328 326 325 325 325 325 324 324 325 326 328 328 328 328 327 327 327 328 328 328 328 328 327 327 327 326 326 327 326 326 325 324 324 324 324 323 322 322 321 321 321 321 321 321 320 319 318 313 311 311 311 309 311 318 317 312 315 314 315
326 325 323 324 326 326 325 325 325 325 324 325 325 326 326 327 327 327 327 327 327 327 328 328 328 327 327 326 327 326 326 327 326 325 325 324 325 324 324 323 323 322 321 321 322 322 322 322 322 322 320 317 313 309 309 310 310 314 312 313 310 313 314
325 325 325 325 325 325 324 324 325 324 324 325 326 327 326 325 326 326 326 326 327 327 327 327 327 327 326 326 326 326 325 326 326 325 325 325 325 325 324 323 324 323 322 322 322 322 322 322 322 323 321 319 318 314 309 309 309 311 311 313 313 311 313
327 326 325 325 324 324 324 324 323 323 323 325 326 326 326 325 326 328 326 325 326 326 327 326 327 327 326 325 325 326 327 326 325 324 324 325 324 324 323 323 323 323 322 323 322 322 322 322 321 322 321 320 319 316 313 311 311 310 310 308 313 311 310
325 325 325 325 324 324 324 324 323 323 324 325 325 325 325 325 325 327 326 326 326 326 326 326 326 326 326 325 325 325 325 325 325 323 323 324 323 324 322 322 322 323 322 323 322 322 322 322 322 322 322 320 318 317 315 314 311 311 309 310 309 308 310
324 325 325 324 323 323 324 325 324 323 323 325 324 325 325 325 325 326 326 326 326 326 326 327 327 326 325 325 325 325 325 325 324 323 322 323 323 324 323 322 321 322 322 323 322 321 321 322 322 321 321 320 317 315 315 313 312 311 307 310 311 306 310
323 324 324 325 324 324 324 324 324 324 324 324 324 324 325 325 325 326 326 326 326 326 326 325 325 325 325 324 325 325 325 326 325 323 323 322 324 324 323 323 322 322 322 323 322 321 321 321 321 321 321 319 317 314 314 313 311 304 304 306 309 306 308
323 323 323 324 324 324 324 324 324 324 324 324 324 324 325 325 325 325 326 325 325 325 325 325 325 325 324 324 323 325 325 324 325 323 323 323 323 324 323 323 322 321 322 323 322 321 321 321 320 321 319 318 317 314 315 313 309 307 306 305 306 306 307
324 324 324 324 325 325 324 324 324 324 324 323 325 325 325 325 325 325 325 325 325 324 324 325 324 325 325 324 323 324 325 325 325 323 322 323 323 323 322 322 322 321 322 322 322 323 322 321 321 321 320 318 317 315 311 311 308 306 305 304 305 305 306
324 323 323 324 324 324 324 324 325 325 324 324 324 324 325 325 324 324 324 324 324 323 324 324 324 325 325 325 324 323 324 325 325 324 324 323 323 323 323 322 322 321 322 322 321 321 321 321 321 321 320 319 317 314 312 313 313 311 306 305 304 304 305
323 323 323 323 322 323 324 325 325 325 324 323 324 323 323 324 323 324 323 323 323 323 324 324 323 324 325 325 323 323 324 325 325 324 324 324 325 324 323 323 322 321 321 321 319 319 320 320 320 320 320 320 319 317 312 312 311 311 307 306 305 304 305
321 320 321 322 322 323 324 324 325 325 324 323 323 323 323 323 323 323 323 323 323 323 323 323 323 323 324 324 323 324 324 325 324 324 323 323 325 324 324 323 322 322 322 322 320 320 320 320 320 320 320 320 321 319 316 312 310 309 309 308 307 304 304
320 320 320 320 322 323 324 325 325 325 324 324 323 322 322 322 322 323 322 322 322 322 323 322 322 322 323 323 323 323 323 323 323 322 322 323 324 324 324 324 322 322 322 323 321 320 320 320 320 320 320 321 321 319 317 314 310 307 307 306 305 306 305
321 321 321 321 321 322 324 324 324 325 324 323 322 322 322 321 321 321 321 320 320 320 320 320 320 321 321 321 321 322 322 321 320 320 320 320 322 322 322 322 321 322 323 323 323 321 320 320 320 319 319 320 321 319 316 313 309 308 307 306 305 304 304
321 321 321 321 321 322 323 323 324 324 323 323 322 321 322 320 317 315 314 314 314 315 316 316 316 317 318 318 319 319 320 320 320 319 317 317 318 318 318 318 317 318 322 324 316 315 317 318 321 319 318 319 320 319 316 311 308 308 307 306 304 304 304
319 320 320 321 321 322 323 323 323 322 322 322 321 319 317 316 314 312 310 309 310 310 310 309 310 309 312 317 317 318 318 319 319 318 317 316 315 315 315 316 321 323 319 317 312 308 307 308 314 319 320 319 319 318 315 310 308 308 307 304 304 303 303
314 319 319 320 321 321 322 322 322 321 320 319 317 316 315 313 311 310 309 308 307 306 305 304 298 297 302 307 315 316 316 316 317 317 317 317 314 311 311 311 312 315 312 312 310 303 301 302 305 306 308 312 316 318 313 310 308 307 307 307 305 303 304
312 317 319 319 319 319 321 320 319 317 314 313 313 312 311 310 308 307 307 306 305 304 302 299 295 296 299 301 308 315 316 316 316 316 316 315 312 310 308 307 307 310 312 308 309 307 303 298 296 295 294 294 295 297 302 312 312 307 307 306 304 304 304
311 315 317 317 317 317 316 314 313 312 311 310 309 309 307 306 305 305 305 304 303 303 301 295 295 297 299 300 303 310 316 316 315 315 314 312 310 308 307 306 305 305 308 312 310 307 305 303 299 297 298 298 297 295 293 292 297 313 310 309 307 305 304
309 311 311 312 312 311 309 307 306 306 306 305 304 304 304 304 304 304 304 304 302 302 302 298 296 297 297 298 301 306 314 313 312 311 310 309 307 306 306 306 306 305 305 306 306 308 308 308 306 304 303 303 303 302 298 298 297 298 304 309 307 306 307
306 308 307 306 305 304 304 303 302 301 301 301 301 300 301 301 302 302 302 303 302 301 300 296 295 296 297 298 300 303 308 306 305 302 301 301 301 301 302 302 303 304 305 306 308 308 308 306 304 302 301 301 301 301 301 302 304 308 310 310 310 310 308
304 304 305 304 302 301 300 299 299 299 298 297 298 298 298 298 299 298 300 301 302 301 300 294 295 296 297 297 300 305 304 302 300 300 299 299 299 299 299 300 302 302 304 306 304 300 302 305 302 301 300 300 300 301 301 299 295 297 304 307 308 306 304
303 302 302 301 300 300 300 299 299 298 296 296 296 296 296 296 297 297 299 300 301 300 299 295 294 295 296 297 300 303 301 300 300 299 299 300 300 300 299 298 299 300 301 303 300 297 297 300 301 300 299 299 299 300 301 302 297 295 295 294 294 294 294
302 301 300 299 298 298 298 298 297 298 296 296 296 297 297 297 297 297 298 299 300 299 298 296 294 294 295 297 300 301 300 299 297 297 297 298 299 299 301 302 300 298 299 298 294 296 296 301 302 301 300 299 299 299 299 300 302 301 296 296 295 295 295
302 301 299 299 298 297 297 297 297 298 297 297 297 297 298 297 297 297 297 298 300 298 298 297 294 294 295 296 299 300 299 298 297 297 297 297 297 297 297 297 297 297 296 294 291 293 295 300 301 300 299 299 298 298 298 300 302 302 302 302 302 302 300
301 301 300 299 299 299 298 298 297 297 297 297 297 297 297 296 296 296 296 297 297 296 296 296 294 293 294 295 297 301 300 298 297 296 297 297 297 297 297 297 295 291 291 291 291 291 292 294 298 299 299 298 298 297 298 300 301 301 300 299 299 300 299
298 300 301 300 300 300 299 298 298 297 297 297 297 296 296 296 295 295 295 295 295 296 296 295 293 292 293 293 294 297 300 299 298 298 298 297 298 297 296 295 294 292 290 291 291 291 291 292 294 299 299 299 298 297 297 300 299 298 299 298 298 298 297
298 299 300 301 300 299 300 300 299 298 298 297 296 296 296 296 295 295 295 295 294 294 296 295 294 292 291 292 292 294 298 298 299 299 297 297 296 295 295 294 293 292 290 290 290 290 290 290 291 294 291 290 291 293 298 299 298 297 297 297 296 296 296
296 297 298 299 300 299 300 299 299 299 298 297 297 296 296 296 295 295 294 294 294 294 294 294 292 293 291 291 291 292 293 295 294 299 297 295 294 294 294 293 293 292 290 290 291 291 291 291 292 291 290 291 291 292 295 297 296 296 296 296 295 295 294
295 296 296 297 298 299 299 299 299 299 298 297 296 295 295 295 294 294 293 293 294 294 294 294 293 292 292 290 291 291 291 292 293 296 296 294 294 294 293 293 292 290 290 290 290 290 290 291 292 290 291 291 291 293 297 296 295 294 293 293 293 293 293
Wind_Speed
0 1 3 2 3 4 5 6 6 6 7 7 7 7 8 7 6 6 6 6 7 7 7 7 8 7 7 6 8 7 7 8 9 9 10 8 10 7 4 3 1 2 4 3 5 5 5 7 3 2 3 3 3 3 3 3 4 4 4 3 3 3 2
2 3 4 4 4 4 5 5 6 7 7 7 6 7 7 7 7 7 7 7 6 7 7 6 6 7 9 9 8 8 8 8 7 7 8 10 8 7 6 1 3 3 3 2 5 4 4 5 4 6 4 1 2 2 3 3 3 4 5 4 3 3 3
3 4 4 4 5 5 6 6 6 6 5 5 5 5 4 5 6 6 7 7 7 7 6 7 7 7 7 8 10 10 10 10 7 8 9 8 8 5 6 5 5 4 4 3 3 4 3 1 5 9 7 7 6 3 2 3 4 4 4 4 3 3 3
3 4 5 5 4 5 5 5 5 3 3 4 3 5 4 4 5 6 7 7 7 7 7 7 8 8 8 8 7 5 4 9 8 7 6 6 7 6 6 6 7 9 8 6 8 6 4 4 4 6 7 7 6 4 2 3 5 5 4 3 4 3 3
5 4 6 6 6 6 5 5 4 5 5 5 5 6 7 7 7 6 6 7 6 6 7 6 6 7 7 7 7 10 9 8 7 7 7 8 8 7 7 6 6 6 5 6 7 7 8 6 6 8 8 6 4 2 2 2 3 5 5 4 3 3 2
3 4 4 5 5 5 4 3 2 4 4 6 7 7 7 8 5 5 6 7 6 6 7 6 6 7 7 7 8 10 9 9 8 9 8 9 10 9 8 6 6 6 6 3 6 7 4 5 5 7 4 6 5 4 1 3 2 2 3 4 4 3 3
3 4 4 5 6 6 5 4 2 2 5 7 7 9 7 7 8 8 4 1 4 2 3 3 3 4 6 6 6 7 9 9 7 9 9 9 8 9 7 7 6 6 5 5 6 7 7 6 5 7 8 4 2 4 1 2 2 3 1 2 3 3 3
2 5 6 6 6 8 9 10 9 7 5 7 6 4 6 8 7 5 6 7 8 7 7 7 7 8 7 8 8 8 8 7 8 8 8 8 7 8 8 8 7 6 6 6 7 7 6 7 7 7 9 8 3 2 2 0 2 5 3 2 3 3 4
5 3 4 7 7 7 6 7 8 8 6 6 8 5 6 4 4 5 7 8 7 7 7 6 6 7 9 8 7 6 7 6 8 9 7 8 8 9 9 6 6 6 5 6 6 7 6 6 6 6 7 8 8 5 1 3 3 4 3 3 1 3 5
7 10 10 9 5 5 5 6 8 9 9 8 9 7 6 5 5 6 7 6 7 7 7 7 8 6 3 4 6 7 8 6 7 9 7 8 8 8 6 8 7 6 6 5 5 5 6 5 5 6 7 9 8 8 7 6 7 6 4 4 4 4 4
4 6 7 7 6 7 6 6 6 6 9 9 9 7 6 6 7 8 6 6 7 8 8 7 7 7 7 7 7 8 8 8 8 6 7 7 7 6 6 6 5 5 5 6 6 6 6 7 6 6 7 6 6 8 7 7 7 5 3 3 3 3 4
3 6 8 8 6 6 5 5 7 5 5 7 8 8 7 6 7 7 7 8 7 8 8 7 7 7 7 7 7 7 7 7 7 7 6 7 6 7 7 7 6 5 6 6 6 6 6 6 6 6 6 6 5 4 8 5 3 3 4 6 5 2 5
3 7 8 7 5 5 6 5 7 6 7 6 7 7 7 7 7 8 8 7 7 6 7 7 7 7 7 7 6 7 7 7 7 7 6 6 5 6 7 7 7 6 6 5 6 6 7 6 6 6 6 7 4 4 5 4 4 2 2 3 4 3 5
6 7 8 6 7 7 4 4 7 9 5 7 7 7 8 8 8 8 7 6 6 6 7 7 6 6 6 7 8 9 8 9 8 6 7 6 6 7 7 7 7 6 7 7 6 6 6 6 6 5 5 5 5 5 6 5 5 2 1 1 3 4 4
7 8 11 8 6 6 4 3 6 6 7 6 7 8 8 8 8 8 8 8 7 6 4 6 6 7 7 7 4 6 5 6 7 7 7 7 7 6 6 7 6 6 7 7 6 6 6 7 6 7 6 6 6 6 5 5 3 5 5 2 3 2 3
7 9 10 8 7 7 5 8 7 7 6 5 7 9 9 9 9 9 9 9 8 7 7 7 7 8 8 8 9 8 6 8 7 7 7 7 8 6 6 6 6 6 5 6 6 6 7 7 7 8 7 7 7 6 5 5 6 5 6 4 3 4 3
8 9 8 6 8 8 7 8 6 7 6 6 7 6 8 9 9 9 9 9 9 8 8 7 7 8 8 8 8 7 7 7 7 7 7 7 7 7 7 6 6 7 7 7 6 5 6 6 7 6 7 7 7 7 6 6 5 5 4 5 4 4 4
5 5 6 5 8 7 7 7 7 9 7 7 7 7 7 8 9 9 9 10 9 8 7 8 8 8 7 7 8 8 7 7 7 7 7 7 7 8 7 7 6 7 7 6 5 5 6 8 6 7 7 7 7 7 6 6 5 4 5 6 4 1 3
7 6 5 4 6 7 8 9 9 10 9 9 9 9 9 8 9 10 9 9 9 7 7 9 8 6 6 8 9 8 7 7 7 7 6 6 7 7 7 7 6 7 7 7 7 6 6 8 7 7 8 7 6 6 7 6 5 5 5 5 6 4 2
8 7 5 5 6 8 9 10 11 11 8 9 9 9 9 9 8 9 9 8 8 8 8 8 7 7 7 8 9 7 7 6 6 6 6 6 6 7 7 6 7 7 8 8 7 8 7 8 7 8 9 9 6 7 6 6 6 6 5 4 2 3 4
8 8 8 6 6 8 9 10 10 9 9 10 10 10 10 9 8 8 8 8 7 7 7 7 7 7 7 7 7 7 7 6 6 6 5 5 5 5 4 4 4 5 6 6 8 7 8 8 7 6 6 6 7 8 7 6 6 6 6 5 4 4 3
8 7 8 8 8 8 9 10 10 10 10 11 9 7 7 8 8 7 6 6 7 7 8 7 7 7 7 6 6 7 7 7 7 6 5 4 4 5 4 4 4 4 4 4 7 8 8 6 7 6 7 8 8 7 6 5 5 5 5 4 3 2 4
10 8 8 8 8 9 9 9 9 9 10 9 9 10 10 7 8 9 8 7 6 5 5 4 6 9 8 7 7 6 5 6 6 6 7 6 5 5 4 3 2 4 5 7 9 12 11 11 9 8 8 8 7 6 6 7 7 7 7 6 5 5 5
10 9 8 8 7 8 9 8 8 8 8 8 7 7 9 10 9 8 9 9 8 6 5 4 5 6 8 11 8 6 7 6 6 6 7 7 7 6 5 4 4 4 5 4 5 8 9 10 9 7 5 3 5 8 8 8 7 7 7 6 5 5 6
9 8 7 7 7 6 7 7 6 6 6 5 5 6 7 8 9 8 7 7 7 6 5 3 4 4 7 10 8 7 6 6 6 6 6 7 6 6 6 5 4 3 3 3 5 6 7 7 8 11 10 9 7 6 4 3 6 6 6 7 6 7 6
11 7 4 5 3 2 2 2 5 7 6 5 6 7 6 8 8 7 8 9 7 6 4 2 4 4 6 8 9 8 6 7 7 7 7 6 6 6 5 5 5 4 3 7 6 7 7 8 10 14 14 14 13 10 9 8 3 4 7 6 7 6 6
10 9 7 6 5 4 5 5 6 5 5 6 7 6 5 7 7 7 7 8 8 7 5 2 5 8 10 11 13 10 8 9 8 8 7 6 6 5 4 6 7 6 4 6 6 7 8 8 8 8 8 7 7 8 10 11 10 6 5 6 7 6 2
10 10 10 8 9 9 8 7 8 7 6 6 6 7 7 5 6 5 4 6 8 7 5 6 8 11 12 14 15 12 9 9 9 8 7 6 5 4 5 5 6 6 6 7 5 8 9 8 9 8 8 8 7 7 8 8 8 6 6 6 6 7 5
11 11 10 10 11 10 10 8 7 6 7 7 8 8 9 8 5 4 4 6 8 8 7 10 9 11 15 15 16 10 9 9 8 7 7 5 5 4 4 5 7 7 7 7 7 10 10 9 9 9 9 8 7 8 9 8 10 11 9 8 8 8 6
11 11 10 10 11 10 9 9 7 5 9 9 10 10 8 7 7 6 7 7 8 8 8 8 10 10 14 17 13 9 9 8 7 7 6 5 5 5 5 4 5 6 7 7 9 13 11 12 9 9 9 8 7 8 8 7 12 15 16 15 15 14 13
10 11 11 11 10 10 9 8 7 5 9 10 10 8 8 8 9 8 8 8 6 8 8 7 9 9 10 12 13 11 9 10 9 7 6 6 5 5 8 11 6 5 7 6 10 12 13 13 10 9 10 10 9 9 7 5 6 8 13 15 15 15 15
10 10 11 10 9 10 9 8 6 7 9 10 9 8 9 8 9 9 9 8 12 9 8 9 11 11 11 10 11 9 9 10 10 7 6 6 5 5 5 9 11 8 7 7 10 8 7 9 10 9 9 10 10 8 4 4 7 7 7 8 8 9 12
11 10 10 11 10 8 6 7 9 10 9 8 8 10 10 10 12 10 10 10 9 8 9 9 11 13 11 11 8 8 8 11 10 9 6 5 6 6 6 6 8 11 12 12 12 12 11 9 9 6 6 8 10 8 2 5 5 6 7 8 7 8 8
11 11 8 8 9 9 9 9 9 9 8 8 11 12 13 10 11 10 10 10 10 11 9 9 11 15 13 13 12 7 6 9 10 9 7 7 5 5 5 5 5 9 13 14 14 14 14 12 9 7 7 7 5 8 6 8 8 8 8 8 7 7 7
11 10 10 8 8 11 10 10 9 8 8 9 12 13 11 10 10 10 10 10 10 9 11 15 9 14 15 15 15 13 8 7 6 9 9 7 7 6 6 5 6 8 14 15 15 15 15 14 14 10 10 12 13 12 8 7 5 6 7 6 6 6 6
11 9 11 10 9 8 9 11 11 10 10 10 11 12 11 10 11 10 9 8 8 9 9 10 15 11 15 15 15 15 13 10 11 8 10 9 7 7 6 8 8 13 16 16 17 16 16 16 14 11 12 12 13 12 10 7 6 7 6 6 6 6 5
12 11 11 10 10 9 9 10 11 9 9 10 10 11 9 9 10 10 8 8 8 8 8 8 12 15 13 16 15 16 17 17 14 10 9 8 7 8 8 8 9 15 17 18 19 17 16 14 11 13 13 13 11 9 7 7 7 6 7 7 7 6 6
Wind_Direction
224 157 127 116 140 152 163 171 176 190 192 195 192 195 194 185 177 171 176 176 176 176 176 180 178 175 170 174 178 168 171 169 174 172 179 176 182 200 188 223 350 75 144 62 139 155 148 162 161 96 115 138 132 156 175 167 158 160 145 136 126 115 103
119 123 119 126 148 163 177 172 187 191 193 193 198 199 194 181 176 175 175 178 177 180 184 183 179 171 175 172 170 169 177 176 178 174 177 183 193 191 160 131 110 124 112 70 123 93 136 156 168 179 156 103 129 152 161 171 161 167 162 155 133 126 122
139 117 117 131 153 171 186 186 187 188 188 185 201 216 186 184 187 173 179 184 186 181 186 184 176 176 179 180 181 183 178 177 180 175 187 182 196 181 181 144 132 123 97 84 97 108 69 110 169 188 181 166 179 164 140 156 155 155 156 156 136 133 130
155 141 139 137 148 170 192 190 188 144 116 177 178 214 208 191 196 193 188 193 188 185 185 179 183 184 187 187 175 143 204 188 178 177 178 183 186 178 173 172 167 170 170 168 173 171 145 149 143 173 174 183 181 151 176 163 158 158 164 154 156 150 146
174 176 172 167 168 184 191 193 159 143 192 185 194 208 203 190 189 194 193 191 187 184 193 187 187 188 187 181 168 180 188 194 181 172 171 173 179 186 188 185 180 181 170 162 171 169 172 172 165 172 174 166 150 158 126 122 153 162 171 167 165 151 141
215 206 187 172 169 185 176 166 212 178 200 192 202 208 207 196 173 186 196 196 182 187 190 184 199 192 188 184 189 187 182 180 182 177 176 182 179 183 192 193 180 181 191 152 143 164 117 135 150 146 161 166 170 161 142 155 156 152 177 164 155 154 151
242 259 246 214 182 174 153 176 149 249 252 238 196 206 194 181 188 185 168 39 60 70 243 230 233 229 203 191 195 193 182 189 175 180 183 180 186 191 178 178 191 189 181 154 148 145 152 139 159 159 150 155 116 154 61 175 142 160 195 163 155 150 151
221 256 248 252 202 177 179 185 180 172 199 274 278 227 192 190 190 154 146 159 166 176 197 203 200 206 211 179 188 208 205 175 180 180 179 173 180 181 181 191 188 184 171 161 158 168 164 173 160 162 149 146 129 114 156 343 169 211 165 147 159 158 166
164 226 247 234 220 213 187 175 173 176 176 209 243 226 222 186 142 154 189 186 168 176 192 198 208 215 197 186 197 192 208 179 176 183 180 177 184 185 190 181 169 188 168 165 170 163 173 161 156 159 158 156 151 163 163 191 227 228 170 153 201 190 167
197 198 213 225 232 251 226 199 185 163 164 196 229 228 207 146 149 187 207 187 178 180 192 184 179 202 213 206 214 191 193 188 177 186 173 182 187 183 185 180 186 175 176 160 155 159 156 151 168 170 171 173 173 153 172 204 220 205 204 195 170 193 173
253 235 227 224 183 204 217 229 226 166 168 184 209 224 218 175 163 193 204 191 186 186 197 190 179 191 183 184 204 218 201 178 177 171 178 176 177 173 176 176 175 174 167 163 168 160 161 165 169 181 187 191 175 168 171 181 214 192 173 210 195 150 182
227 228 231 227 209 196 200 221 240 224 172 178 190 201 205 184 170 191 204 205 199 192 187 188 179 179 176 192 201 214 189 178 167 171 172 169 166 163 168 176 174 171 165 172 154 156 160 161 177 180 193 189 194 187 168 155 168 235 166 183 210 190 161
223 238 241 234 235 223 197 194 221 230 213 192 190 188 193 188 182 191 209 209 202 199 186 186 180 176 169 189 192 212 190 169 167 168 168 170 158 169 165 170 173 171 170 155 154 162 166 173 168 177 188 194 175 161 149 144 155 160 230 194 181 166 156
231 250 259 249 240 244 234 194 215 225 208 205 187 189 194 192 188 193 204 211 203 202 194 184 174 170 175 176 195 204 185 171 168 166 160 165 170 168 174 175 176 171 161 160 169 158 165 167 163 170 172 177 172 170 154 151 152 125 106 278 162 168 153
224 234 248 242 236 250 257 233 228 228 219 208 184 194 197 195 185 178 179 187 192 178 192 194 177 182 187 176 186 223 163 151 171 162 158 165 169 177 178 185 172 155 170 160 162 167 166 162 166 160 173 178 185 178 175 145 161 152 176 158 124 67 133
217 222 235 244 238 232 223 232 206 212 214 194 203 196 192 186 179 171 175 184 186 178 179 194 191 188 184 173 185 204 171 173 168 164 169 169 170 169 176 189 175 152 161 154 172 170 161 168 168 174 176 181 187 172 170 172 147 170 169 200 152 153 165
227 226 228 231 245 228 206 229 211 212 201 187 204 206 190 181 170 170 171 174 181 183 178 177 193 193 182 172 171 195 177 179 175 172 173 167 165 168 177 180 174 161 168 170 168 169 173 160 167 170 173 188 180 165 179 189 177 149 165 162 200 178 170
264 243 231 204 231 239 225 219 217 217 199 189 200 195 195 177 164 170 175 177 179 184 176 168 189 190 181 158 171 204 181 176 176 175 178 172 168 172 174 187 171 166 169 170 168 171 169 169 166 164 168 183 182 170 175 179 179 156 151 183 148 143 136
274 261 249 212 199 214 226 222 216 219 206 193 189 195 189 184 171 175 178 178 180 172 163 178 187 185 176 170 184 192 175 173 174 175 176 171 168 172 179 184 170 168 172 178 185 175 172 169 163 160 173 185 174 163 172 174 183 174 178 165 158 136 180
292 282 258 226 210 204 209 216 216 216 208 198 190 189 189 181 180 177 175 173 179 170 174 181 180 181 181 174 184 181 167 169 166 168 173 172 173 173 182 181 171 176 180 188 176 179 173 169 174 173 176 183 176 166 159 180 192 156 183 162 132 160 147
282 279 276 260 223 213 210 214 217 212 200 200 195 189 182 180 175 173 169 171 170 163 169 174 174 177 185 172 157 175 163 163 161 163 164 172 165 160 158 163 170 182 194 188 193 177 161 177 180 171 176 176 183 175 178 167 168 155 177 177 178 163 163
286 267 264 266 262 244 224 215 213 210 206 203 190 170 172 169 155 147 136 143 147 160 168 170 170 175 169 163 168 158 164 168 164 158 146 129 110 113 115 136 152 168 186 169 133 150 190 172 159 176 188 182 183 178 171 140 143 139 153 151 165 108 141
299 269 259 255 250 249 242 228 215 209 210 201 181 159 160 163 155 146 140 139 140 153 150 141 163 171 169 164 167 169 160 167 162 151 138 122 97 86 96 97 124 155 163 149 152 159 172 161 177 196 178 184 172 170 168 158 165 169 154 162 191 155 172
309 282 262 257 253 244 239 227 211 199 197 195 170 156 159 156 148 150 152 148 145 141 135 139 152 166 174 168 160 159 163 160 155 142 140 136 130 121 97 85 76 80 91 112 151 168 158 148 171 187 122 161 181 174 160 163 182 172 172 164 149 178 206
309 286 256 247 249 252 240 217 197 172 158 158 140 138 151 147 141 142 140 136 133 134 132 138 150 170 172 168 162 154 146 138 125 117 121 122 122 125 121 102 69 56 82 132 122 108 93 98 86 86 84 69 60 48 38 161 159 158 164 148 166 195 199
318 312 275 263 262 294 323 131 151 157 152 134 122 138 145 130 131 134 135 130 119 116 127 134 139 150 152 142 131 118 108 107 110 109 106 113 121 124 124 107 93 52 54 102 111 111 110 94 86 89 89 83 71 72 74 57 31 196 162 161 179 183 197
340 352 357 15 11 45 67 51 35 38 91 103 107 97 101 106 107 119 136 133 126 115 111 77 128 134 126 122 115 104 99 96 93 97 100 100 100 113 122 122 114 93 71 96 113 114 112 104 98 85 71 64 66 59 60 61 65 93 153 164 160 159 165
354 1 6 18 38 35 29 48 56 39 39 58 68 84 66 55 79 87 99 113 109 94 54 80 123 124 119 110 101 96 96 93 92 85 75 78 78 90 104 101 103 110 106 108 112 123 114 109 101 91 79 65 57 47 44 31 27 37 65 78 94 98 100
6 8 15 27 33 35 33 22 55 64 72 72 64 60 53 51 24 59 69 81 96 84 66 79 107 117 113 108 100 96 97 94 92 84 78 67 69 59 65 94 111 104 108 103 114 115 116 113 102 97 89 81 66 53 52 45 51 54 57 71 82 83 75
16 16 19 29 34 31 30 26 22 54 72 56 67 60 50 51 37 24 56 58 85 84 77 67 93 105 112 111 102 102 101 94 85 83 74 67 67 68 63 62 83 113 102 100 124 124 123 113 106 103 102 94 85 72 49 40 56 69 77 79 83 88 87
11 25 27 29 36 36 36 30 12 30 70 70 57 55 64 60 49 34 39 50 43 90 79 59 74 90 100 107 115 113 110 104 97 93 89 68 67 58 53 62 76 91 103 105 122 128 133 115 110 112 112 110 101 94 84 70 81 72 75 76 72 70 65
13 30 36 29 31 42 37 34 9 32 60 65 70 65 52 48 54 43 33 36 46 49 67 54 54 70 83 100 110 115 115 111 106 102 102 90 73 71 63 51 52 59 74 91 98 107 118 124 125 133 134 113 105 95 88 81 100 90 66 60 44 50 47
8 23 41 42 29 30 33 43 37 41 46 57 66 67 62 50 49 35 31 29 38 35 47 46 39 51 63 68 86 117 122 119 119 116 105 101 96 73 59 55 50 56 75 75 77 78 77 91 114 118 116 108 117 110 128 90 67 83 82 77 72 60 60
10 10 16 47 55 32 35 32 39 41 41 40 55 52 51 50 50 40 34 35 36 33 32 44 37 43 50 55 57 73 101 110 120 116 113 98 82 81 62 53 55 55 72 72 71 70 71 69 79 86 78 90 84 124 123 100 89 83 81 76 69 59 53
17 13 10 6 45 66 40 39 42 45 44 45 59 60 49 49 53 43 32 33 34 33 34 38 44 40 45 53 56 60 82 75 84 117 100 89 82 70 62 60 68 69 75 76 74 74 73 73 72 76 77 90 99 105 97 90 96 86 79 76 75 65 55
14 19 16 14 17 38 71 62 43 40 45 45 50 60 54 45 50 44 31 30 31 32 33 40 40 46 44 52 57 62 66 73 68 77 100 98 89 95 86 83 81 78 78 76 76 76 76 77 74 82 93 94 95 95 93 84 85 82 76 71 68 64 53
21 20 22 23 21 25 33 55 56 43 43 53 48 47 44 48 52 45 32 21 23 27 32 43 44 48 51 53 61 66 71 72 75 86 79 85 92 97 96 80 88 86 83 82 79 76 73 74 85 87 87 90 90 89 89 87 78 80 82 72 65 59 53